SV4JYD-13 Weather Reports


time (UTC)temp
F
wind
direction
speed
knots
gust
knots
rain 1hr
in
rain 24hr
in
rain mn
in
humidity
%
barometer
mb
20260504234630 54 284 4.3 6.1 0.00 0.00 0.00 72 1018.0
20260504233130 54 284 4.3 6.1 0.00 0.00 0.00 74 1018.0
20260504231630 54 284 4.3 6.1 0.00 0.00 0.00 75 1018.0
20260504230130 54 284 4.3 6.1 0.00 0.00 0.00 76 1018.0
20260504224630 54 284 4.3 6.1 0.00 0.00 0.00 81 1018.0
20260504223129 53 284 4.3 6.1 0.00 0.00 0.00 81 1018.0
20260504221629 53 284 4.3 6.1 0.00 0.00 0.00 79 1018.0
20260504220129 53 284 4.3 6.1 0.00 0.00 0.00 78 1018.0
20260504214628 53 284 4.3 6.1 0.00 0.00 0.00 80 1018.0
20260504213127 52 275 2.6 4.3 0.00 0.00 0.00 82 1018.0
20260504211627 52 275 2.6 4.3 0.00 0.00 0.00 90 1019.0
20260504210127 52 275 2.6 4.3 0.00 0.00 0.00 91 1019.0
20260504204627 52 275 2.6 4.3 0.00 0.00 0.00 92 1019.0
20260504203126 52 275 2.6 4.3 0.00 0.00 0.00 93 1019.0
20260504201626 52 280 0.9 3.5 0.00 0.00 0.00 92 1019.0
20260504200126 53 280 0.9 3.5 0.00 0.00 0.00 90 1019.0
20260504194626 54 280 0.9 3.5 0.00 0.00 0.00 87 1019.0
20260504193125 54 280 0.9 3.5 0.00 0.00 0.00 83 1019.0
20260504191625 55 280 0.9 3.5 0.00 0.00 0.00 83 1018.0
20260504190125 56 280 0.9 3.5 0.00 0.00 0.00 82 1018.0
20260504184625 57 280 0.9 3.5 0.00 0.00 0.00 81 1018.0
20260504183124 59 280 0.9 3.5 0.00 0.00 0.00 73 1018.0
20260504181624 59 280 0.9 3.5 0.00 0.00 0.00 69 1018.0
20260504180124 60 280 0.9 3.5 0.00 0.00 0.00 67 1018.0
20260504174624 61 280 0.9 3.5 0.00 0.00 0.00 60 1018.0
20260504173123 63 280 0.9 3.5 0.00 0.00 0.00 53 1018.0
20260504171623 64 280 0.9 3.5 0.00 0.00 0.00 56 1018.0
20260504171518 64 280 0.9 3.5 0.00 0.00 0.00 54 1018.0
20260504081508 59 305 4.3 7.0 0.00 0.00 0.00 79 1021.0
20260504050004 47 304 4.3 4.3 0.00 0.00 0.00 10 1020.0
20260504044504 47 304 4.3 5.2 0.00 0.00 0.00 10 1020.0
20260504043004 46 291 4.3 4.3 0.00 0.00 0.00 10 1020.0
20260504041503 45 291 4.3 4.3 0.00 0.00 0.00 10 1020.0
20260504040003 45 291 4.3 4.3 0.00 0.00 0.00 10 1020.0
20260504034503 45 291 4.3 4.3 0.00 0.00 0.00 10 1020.0
20260504033003 45 291 4.3 4.3 0.00 0.00 0.00 10 1020.0
20260504031502 45 291 4.3 4.3 0.00 0.00 0.00 10 1020.0
20260504024502 45 291 4.3 4.3 0.00 0.00 0.00 10 1020.0
20260504021501 44 291 4.3 4.3 0.00 0.00 0.00 10 1020.0
20260504020001 44 291 4.3 5.2 0.00 0.00 0.00 10 1020.0
20260504014501 43 291 4.3 5.2 0.00 0.00 0.00 10 1020.0
20260504013001 43 289 3.5 5.2 0.00 0.00 0.00 10 1020.0
20260504011500 43 289 3.5 5.2 0.00 0.00 0.00 10 1020.0
20260504010000 43 289 3.5 5.2 0.00 0.00 0.00 10 1020.0
20260504004500 43 298 3.5 3.5 0.00 0.00 0.00 10 1020.0
20260504003000 44 293 3.5 3.5 0.00 0.00 0.00 10 1020.0
20260504001500 46 293 3.5 3.5 0.00 0.00 0.00 10 1020.0
20260503235959 46 293 3.5 3.5 0.00 0.00 0.00 10 1020.0